Location: Davayat
(45.9471°N, 3.1105°E)
Time: 14:54:52
(UTC+00:00)

ERS-2 - Visible Passes

Search period start: 20 April 2021 00:00
Search period end: 30 April 2021 00:00
Orbit: 492 x 496 km, 98.6° (Epoch: 19 April)

Date Brightness Start Highest point End Pass type
(mag) Time Alt. Az. Time Alt. Az. Time Alt. Az.
20 Apr 4.7 20:03:12 10° N 20:06:13 24° WNW 20:09:12 10° WSW visible
21 Apr 3.5 19:41:27 10° N 19:44:56 43° WNW 19:48:23 10° SW visible
22 Apr 2.2 19:19:56 10° NNE 19:23:36 81° WNW 19:27:13 10° SSW visible
23 Apr 5.5 20:33:30 10° NNW 20:35:16 13° WNW 20:37:01 10° W visible
24 Apr 4.9 20:11:14 10° NNW 20:14:04 22° WNW 20:16:53 10° WSW visible
25 Apr 3.8 19:49:25 10° N 19:52:48 37° WNW 19:56:09 10° SW visible
26 Apr 2.5 19:27:49 10° N 19:31:27 69° WNW 19:35:03 10° SSW visible
27 Apr 5.6 20:41:45 10° NW 20:43:04 12° WNW 20:44:22 10° W visible
28 Apr 5.1 20:19:14 10° NNW 20:21:52 19° WNW 20:24:30 10° WSW visible
29 Apr 4.1 19:57:19 10° N 20:00:36 32° WNW 20:03:52 10° SW visible
